Skip Page Navigation
NASA JPL Caltech
NASA Logo - Jet Propulsion Laboratory + View the NASA Portal
+ Near-Earth Object (NEO) Program
Search JPL
JPL Home Earth Solar System Stars & Galaxies Technology
JPL Solar System Dynamics
BODIES ORBITS EPHEMERIDES TOOLS PHYSICAL DATA DISCOVERY FAQ SITE MAP
JPL Small-Body Database Browser
Search: [ help ]  
3009 Coventry (1973 SM2)
Classification: Main-belt Asteroid          SPK-ID: 2003009
Ephemeris | Orbit Diagram | Orbital Elements | Physical Parameters | Discovery Circumstances ]

[ show orbit diagram ]
Orbital Elements at Epoch 2456800.5 (2014-May-23.0) TDB
Reference: JPL 12 (heliocentric ecliptic J2000)
 Element Value Uncertainty (1-sigma)   Units 
e .2051954760989395 6.4195e-08  
a 2.196613424117472 9.2872e-09 AU
q 1.745878286750365 1.4098e-07 AU
i 4.558319141753717 6.7576e-06 deg
node 8.491790723628432 6.7951e-05 deg
peri 316.5693096621241 6.8902e-05 deg
M 193.5018223666144 1.2932e-05 deg
tp 2457350.466024295862
(2015-Nov-23.96602430)
4.3586e-05 JED
period 1189.12874339359
3.26
7.5414e-06
2.065e-08
d
yr
n .3027426609608441 1.92e-09 deg/d
Q 2.647348561484578 1.1193e-08 AU
  Orbit Determination Parameters
   # obs. used (total)      1189  
   data-arc span      14882 days (40.74 yr)  
   first obs. used      1973-09-22  
   last obs. used      2014-06-21  
   planetary ephem.      DE431  
   SB-pert. ephem.      SB431-BIG16  
   condition code      0  
   fit RMS      .53364  
   data source      ORB  
   producer      Otto Matic  
   solution date      2014-Jul-14 12:04:49  

Additional Information
 Earth MOID = .736564 AU 
 T_jup = 3.637 
[ show covariance matrix ]

Ephemeris | Orbit Diagram | Orbital Elements | Physical Parameters | Discovery Circumstances ]

Physical Parameter Table
Parameter Symbol Value Units Sigma Reference Notes
absolute magnitude H 13.7 mag n/a MPO253382  
diameter diameter 6.08 km 0.6 IRAS-A-FPA-3-RDR-IMPS-V6.0 IRAS observations used: 2
geometric albedo albedo 0.1096   0.024 IRAS-A-FPA-3-RDR-IMPS-V6.0 IRAS observations used: 2

3009 Coventry (1973 SM2)          Discovered 1973-Sep-22 by Chernykh, N. at Nauchnyj
Reference: DISCOVERY.DBLast Updated: 2003-08-29

Alternate Designations
 1973 SM2 = 1979 JB = 1982 FV3 
Ephemeris | Orbit Diagram | Orbital Elements | Physical Parameters | Discovery Circumstances ]
ABOUT SSD CREDITS/AWARDS PRIVACY/COPYRIGHT GLOSSARY LINKS
FirstGov 2014-Aug-01 22:34 UT
(server date/time)  
NASA Home Page
Site Manager:   Donald K. Yeomans
Webmaster  Alan B. Chamberlin